[Date Prev][Date Next][Thread Prev][Thread Next][Date Index][Thread Index]

[jamsat-news:1537] AO-40: 最新軌道要素


皆さま、

AO-40のテレメトリ・アーカイブを主宰している VP9MU
Paul Willmott から最新軌道要素の情報提供がありました。
この軌道要素は、コマンド局のG3RUH James Miller が
算出したものです。

AO-40 AMSAT Ranging
1 26609U 00072B   01187.95840000  .00000000  00000-0  10000-4 0  0126
2 26609   5.4711 173.8219 8003453 298.2101   7.7945  1.25595670  3151
  
  SMA(軌道長半径) 36292.6 km
  Hp(近地点高度) 867.9 km

JAMSAT SCOPE プロジェクトチーム
武安
ja6xkq@jamsat.or.jp